Date String (YYYY-MM-DD hh:mm:ss) UTC,Instrument flags,Ambient pressure (hPa),Sample flow (lpm),Bypass flow (lpm),Sample temperature (°C),Ambient temperature (°C),ASC tube jacket temperature (°C),LED temperature (°C),Box temperature (°C),Sample RH (%),Span deviation,Mass concentration (μg/m³),Mass concentration (μg/m³),Mass concentration (μg/m³)
DateTimeUTC,F1_M11,P_M11,Q1_M11,Q2_M11,T1_M11,T2_M11,T3_M11,T4_M11,T5_M11,U1_M11,ZSPAN_M11,X2_M11,X0_M11,X1_M11
2023-04-06 00:00:00,,0829.7,5.01,0.00,22.6,21.5,00.0,30.9,24.1,09.4,0000.0,0001.66,0003.20,0001.29
2023-04-06 00:01:00,,0829.7,5.00,0.00,22.5,21.3,00.0,30.9,24.1,09.0,0000.0,0001.72,0003.39,0001.29
2023-04-06 00:02:00,,0829.7,5.00,0.00,22.5,21.2,00.0,30.9,24.0,08.9,0000.0,0001.76,0003.55,0001.31
2023-04-06 00:03:00,,0829.8,5.00,0.00,22.5,21.1,00.0,30.9,24.0,08.4,0000.0,0001.74,0003.51,0001.31
2023-04-06 00:04:00,,0829.8,5.00,0.00,22.5,20.9,00.0,30.9,24.0,09.5,0000.0,0001.69,0003.83,0001.32
2023-04-06 00:05:00,,0829.8,5.00,0.00,22.5,20.8,00.0,30.9,24.0,09.2,0000.0,0001.69,0004.88,0001.31
2023-04-06 00:06:00,,0829.8,5.00,0.00,22.5,20.8,00.0,30.9,23.9,09.4,0000.0,0001.72,0004.96,0001.31
2023-04-06 00:07:00,,0829.8,4.99,0.00,22.5,20.8,00.0,30.9,23.9,08.8,0000.0,0001.70,0004.95,0001.29
2023-04-06 00:08:00,,0829.8,5.00,0.00,22.4,20.7,00.0,30.8,23.9,08.7,0000.0,0001.68,0004.96,0001.29
2023-04-06 00:09:00,,0829.8,5.01,0.00,22.4,20.7,00.0,30.8,23.9,08.7,0000.0,0001.70,0004.95,0001.29
2023-04-06 00:10:00,,0829.9,5.01,0.00,22.4,20.7,00.0,30.8,23.9,09.2,0000.0,0001.73,0004.85,0001.30
2023-04-06 00:11:00,,0829.9,5.01,0.00,22.4,20.6,00.0,30.8,23.8,09.4,0000.0,0001.76,0005.12,0001.31
2023-04-06 00:12:00,,0830.0,4.98,0.00,22.3,20.6,00.0,30.8,23.7,09.2,0000.0,0001.73,0005.03,0001.31
2023-04-06 00:13:00,,0830.0,5.01,0.00,22.3,20.6,00.0,30.8,23.8,08.6,0000.0,0001.70,0004.96,0001.29
2023-04-06 00:14:00,,0830.0,5.00,0.00,22.3,20.5,00.0,30.8,23.8,08.5,0000.0,0001.73,0005.16,0001.28
2023-04-06 00:15:00,,0830.0,5.00,0.00,22.3,20.5,00.0,30.8,23.7,08.1,0000.0,0001.74,0005.04,0001.28
2023-04-06 00:16:00,,0830.0,5.00,0.00,22.3,20.4,00.0,30.7,23.7,08.4,0000.0,0001.75,0003.73,0001.28
2023-04-06 00:17:00,,0830.0,5.00,0.00,22.2,20.4,00.0,30.7,23.7,09.2,0000.0,0001.75,0003.71,0001.31
2023-04-06 00:18:00,,0830.0,5.00,0.00,22.2,20.4,00.0,30.7,23.6,08.3,0000.0,0001.77,0003.72,0001.31
2023-04-06 00:19:00,,0830.0,5.01,0.00,22.2,20.3,00.0,30.7,23.6,08.6,0000.0,0001.78,0003.80,0001.32
2023-04-06 00:20:00,,0830.1,5.00,0.00,22.2,20.3,00.0,30.7,23.6,09.4,0000.0,0001.77,0004.01,0001.33
2023-04-06 00:21:00,,0830.0,5.00,0.00,22.1,20.3,00.0,30.7,23.6,09.4,0000.0,0001.74,0003.98,0001.32
2023-04-06 00:22:00,,0830.1,5.01,0.00,22.2,20.7,00.0,30.6,23.8,08.5,0000.0,0001.70,0003.56,0001.31
2023-04-06 00:23:00,,0830.1,5.00,0.00,22.3,21.8,00.0,30.6,24.2,08.8,0000.0,0001.69,0003.56,0001.32
2023-04-06 00:24:00,,0830.2,5.00,0.00,22.4,22.9,00.0,30.6,24.5,08.7,0000.0,0001.71,0003.66,0001.33
2023-04-06 00:25:00,,0830.2,4.99,0.00,22.5,23.0,00.0,30.7,24.5,08.3,0000.0,0001.71,0003.49,0001.34
2023-04-06 00:26:00,,0830.1,4.99,0.00,22.6,22.7,00.0,30.7,24.3,08.6,0000.0,0001.69,0003.44,0001.35
2023-04-06 00:27:00,,0830.2,5.00,0.00,22.6,22.3,00.0,30.8,24.3,08.1,0000.0,0001.70,0003.45,0001.35
2023-04-06 00:28:00,,0830.2,5.00,0.00,22.5,22.0,00.0,30.8,24.2,08.1,0000.0,0001.69,0003.42,0001.34
2023-04-06 00:29:00,,0830.2,5.00,0.00,22.5,21.8,00.0,30.8,24.1,08.6,0000.0,0001.67,0003.33,0001.34
2023-04-06 00:30:00,,0830.2,5.00,0.00,22.5,21.5,00.0,30.8,24.0,08.4,0000.0,0001.66,0003.26,0001.34
2023-04-06 00:31:00,,0830.2,5.00,0.00,22.4,21.3,00.0,30.8,23.9,07.8,0000.0,0001.70,0003.79,0001.35
2023-04-06 00:32:00,,0830.2,5.01,0.00,22.4,21.2,00.0,30.8,23.9,08.1,0000.0,0001.72,0003.91,0001.36
2023-04-06 00:33:00,,0830.2,5.00,0.00,22.4,21.1,00.0,30.8,23.9,07.9,0000.0,0001.73,0003.99,0001.36
2023-04-06 00:34:00,,0830.2,4.99,0.00,22.4,21.0,00.0,30.8,23.9,07.7,0000.0,0001.72,0003.91,0001.35
2023-04-06 00:35:00,,0830.2,5.01,0.00,22.4,20.9,00.0,30.8,23.9,08.3,0000.0,0001.71,0003.82,0001.34
2023-04-06 00:36:00,,0830.3,5.01,0.00,22.4,20.9,00.0,30.8,23.9,08.1,0000.0,0001.72,0003.91,0001.34
2023-04-06 00:37:00,,0830.2,5.01,0.00,22.4,20.8,00.0,30.8,23.9,08.9,0000.0,0001.74,0003.96,0001.34
2023-04-06 00:38:00,,0830.3,5.00,0.00,22.4,20.8,00.0,30.8,23.9,08.9,0000.0,0001.72,0003.99,0001.33
2023-04-06 00:39:00,,0830.3,5.00,0.00,22.4,20.7,00.0,30.8,23.9,08.4,0000.0,0001.72,0004.02,0001.34
2023-04-06 00:40:00,,0830.3,4.99,0.00,22.4,20.7,00.0,30.8,23.9,08.1,0000.0,0001.73,0004.06,0001.34
2023-04-06 00:41:00,,0830.2,5.00,0.00,22.4,20.7,00.0,30.8,23.9,08.2,0000.0,0001.78,0004.31,0001.35
2023-04-06 00:42:00,,0830.2,5.01,0.00,22.3,20.7,00.0,30.8,23.9,07.6,0000.0,0001.77,0003.61,0001.37
2023-04-06 00:43:00,,0830.2,5.01,0.00,22.3,20.7,00.0,30.8,23.8,08.0,0000.0,0001.80,0003.06,0001.39
2023-04-06 00:44:00,,0830.3,4.99,0.00,22.3,20.7,00.0,30.8,23.8,08.1,0000.0,0001.82,0003.06,0001.39
2023-04-06 00:45:00,,0830.3,4.99,0.00,22.3,20.7,00.0,30.7,23.8,08.2,0000.0,0001.84,0003.11,0001.41
2023-04-06 00:46:00,,0830.3,5.01,0.00,22.3,20.6,00.0,30.7,23.8,08.1,0000.0,0001.85,0003.09,0001.41
2023-04-06 00:47:00,,0830.3,5.00,0.00,22.3,20.6,00.0,30.7,23.7,08.1,0000.0,0001.81,0002.92,0001.42
2023-04-06 00:48:00,,0830.3,5.00,0.00,22.3,20.5,00.0,30.7,23.7,08.4,0000.0,0001.80,0003.04,0001.42
2023-04-06 00:49:00,,0830.3,4.99,0.00,22.3,20.5,00.0,30.7,23.7,08.2,0000.0,0001.81,0003.10,0001.43
2023-04-06 00:50:00,,0830.4,5.01,0.00,22.2,20.5,00.0,30.7,23.7,08.2,0000.0,0001.83,0003.19,0001.42
2023-04-06 00:51:00,,0830.4,5.01,0.00,22.2,20.5,00.0,30.7,23.7,08.7,0000.0,0001.84,0003.21,0001.41
2023-04-06 00:52:00,,0830.4,4.99,0.00,22.2,20.5,00.0,30.7,23.7,08.8,0000.0,0001.84,0003.06,0001.41
2023-04-06 00:53:00,,0830.4,5.00,0.00,22.2,20.5,00.0,30.7,23.7,08.6,0000.0,0001.83,0002.94,0001.39
2023-04-06 00:54:00,,0830.4,5.01,0.00,22.2,20.5,00.0,30.6,23.7,08.3,0000.0,0001.82,0002.88,0001.37
2023-04-06 00:55:00,,0830.4,5.00,0.00,22.2,20.5,00.0,30.6,23.7,08.5,0000.0,0001.80,0002.88,0001.37
2023-04-06 00:56:00,,0830.4,5.00,0.00,22.2,21.2,00.0,30.6,24.0,08.3,0000.0,0001.80,0002.91,0001.36
2023-04-06 00:57:00,,0830.5,5.00,0.00,22.4,22.3,00.0,30.5,24.4,08.4,0000.0,0001.79,0003.07,0001.37
2023-04-06 00:58:00,,0830.6,4.99,0.00,22.5,23.1,00.0,30.6,24.6,08.5,0000.0,0001.79,0003.12,0001.38
2023-04-06 00:59:00,,0830.4,4.99,0.00,22.6,22.9,00.0,30.7,24.4,08.4,0000.0,0001.80,0003.02,0001.37
